![]() |
EMODnet Physics ERDDAP
Easier access to scientific data |
log in|
Brought to you by EMODnet Physics |
| Dataset Title: | NDBC - Collection of dew point temperature (DEWT) TimeSeries - IN SITU MultiPointTimeSeriesObservation
|
| Institution: | NDBC (Dataset ID: TS_DEWT_NDBC) |
| Information: | Summary
| License
| FGDC
| ISO 19115
| Metadata
| Background
| Subset
| Data Access Form
| Make a graph
|
| Name | Last modified | Size | Description | |
|---|---|---|---|---|
| Parent Directory | - | - | ||
| 51206_TS_DEWT_012013.nc | 27-Oct-2024 04:11 | 429594 | ||
| 51206_TS_DEWT_012014.nc | 27-Oct-2024 04:11 | 429624 | ||
| 51206_TS_DEWT_012015.nc | 27-Oct-2024 04:11 | 429614 | ||
| 51206_TS_DEWT_012017.nc | 27-Oct-2024 04:11 | 429615 | ||
| 51206_TS_DEWT_012018.nc | 27-Oct-2024 04:11 | 429619 | ||
| 51206_TS_DEWT_012020.nc | 27-Oct-2024 04:11 | 429625 | ||
| 51206_TS_DEWT_012021.nc | 27-Oct-2024 04:11 | 429615 | ||
| 51206_TS_DEWT_012022.nc | 27-Oct-2024 04:11 | 429626 | ||
| 51206_TS_DEWT_012023.nc | 27-Oct-2024 04:11 | 429628 | ||
| 51206_TS_DEWT_012024.nc | 05-Dec-2024 19:47 | 429619 | ||
| 51206_TS_DEWT_022013.nc | 27-Oct-2024 04:12 | 431288 | ||
| 51206_TS_DEWT_022014.nc | 27-Oct-2024 04:12 | 450418 | ||
| 51206_TS_DEWT_022015.nc | 27-Oct-2024 04:12 | 451182 | ||
| 51206_TS_DEWT_022016.nc | 27-Oct-2024 04:12 | 442727 | ||
| 51206_TS_DEWT_022017.nc | 27-Oct-2024 04:12 | 451388 | ||
| 51206_TS_DEWT_022018.nc | 27-Oct-2024 04:12 | 429839 | ||
| 51206_TS_DEWT_022019.nc | 27-Oct-2024 04:12 | 449974 | ||
| 51206_TS_DEWT_022020.nc | 27-Oct-2024 04:12 | 449857 | ||
| 51206_TS_DEWT_022021.nc | 27-Oct-2024 04:12 | 450331 | ||
| 51206_TS_DEWT_022022.nc | 27-Oct-2024 04:12 | 451465 | ||
| 51206_TS_DEWT_022023.nc | 27-Oct-2024 04:12 | 451100 | ||
| 51206_TS_DEWT_032012.nc | 27-Oct-2024 04:12 | 450566 | ||
| 51206_TS_DEWT_032013.nc | 27-Oct-2024 04:12 | 450703 | ||
| 51206_TS_DEWT_032014.nc | 27-Oct-2024 04:12 | 429849 | ||
| 51206_TS_DEWT_032015.nc | 27-Oct-2024 04:12 | 450963 | ||
| 51206_TS_DEWT_032016.nc | 27-Oct-2024 04:12 | 1149078 | ||
| 51206_TS_DEWT_032017.nc | 27-Oct-2024 04:12 | 1265707 | ||
| 51206_TS_DEWT_032018.nc | 27-Oct-2024 04:13 | 1260816 | ||
| 51206_TS_DEWT_032019.nc | 27-Oct-2024 04:13 | 1263153 | ||
| 51206_TS_DEWT_032020.nc | 27-Oct-2024 04:13 | 1261936 | ||
| 51206_TS_DEWT_032021.nc | 27-Oct-2024 04:13 | 1283815 | ||
| 51206_TS_DEWT_032022.nc | 27-Oct-2024 04:13 | 1264274 | ||
| 51206_TS_DEWT_042012.nc | 27-Oct-2024 04:13 | 429271 | ||
| 51206_TS_DEWT_042013.nc | 27-Oct-2024 04:13 | 429272 | ||
| 51206_TS_DEWT_042014.nc | 27-Oct-2024 04:13 | 426401 | ||
| 51206_TS_DEWT_042015.nc | 27-Oct-2024 04:13 | 425658 | ||
| 51206_TS_DEWT_042016.nc | 27-Oct-2024 04:13 | 429273 | ||
| 51206_TS_DEWT_042017.nc | 27-Oct-2024 04:13 | 425597 | ||
| 51206_TS_DEWT_042018.nc | 27-Oct-2024 04:13 | 422447 | ||
| 51206_TS_DEWT_042019.nc | 27-Oct-2024 04:14 | 429289 | ||
| 51206_TS_DEWT_042020.nc | 27-Oct-2024 04:14 | 423907 | ||
| 51206_TS_DEWT_042021.nc | 27-Oct-2024 04:14 | 420616 | ||
| 51206_TS_DEWT_042022.nc | 27-Oct-2024 04:14 | 421182 | ||
| 51206_TS_DEWT_052012.nc | 27-Oct-2024 04:14 | 422179 | ||
| 51206_TS_DEWT_052013.nc | 27-Oct-2024 04:14 | 422293 | ||
| 51206_TS_DEWT_052014.nc | 27-Oct-2024 04:14 | 423114 | ||
| 51206_TS_DEWT_052015.nc | 27-Oct-2024 04:14 | 429297 | ||
| 51206_TS_DEWT_052016.nc | 27-Oct-2024 04:14 | 426865 | ||
| 51206_TS_DEWT_052017.nc | 27-Oct-2024 04:14 | 429285 | ||
| 51206_TS_DEWT_052018.nc | 27-Oct-2024 04:14 | 429290 | ||
| 51206_TS_DEWT_052019.nc | 27-Oct-2024 04:14 | 429294 | ||
| 51206_TS_DEWT_052020.nc | 27-Oct-2024 04:14 | 429291 | ||
| 51206_TS_DEWT_052022.nc | 27-Oct-2024 04:14 | 429292 | ||
| 51206_TS_DEWT_062012.nc | 27-Oct-2024 04:14 | 429297 | ||
| 51206_TS_DEWT_062013.nc | 27-Oct-2024 04:14 | 429499 | ||
| 51206_TS_DEWT_062014.nc | 27-Oct-2024 04:14 | 449756 | ||
| 51206_TS_DEWT_062015.nc | 27-Oct-2024 04:14 | 449813 | ||
| 51206_TS_DEWT_062016.nc | 27-Oct-2024 04:15 | 450137 | ||
| 51206_TS_DEWT_062017.nc | 27-Oct-2024 04:15 | 423759 | ||
| 51206_TS_DEWT_062018.nc | 27-Oct-2024 04:15 | 419886 | ||
| 51206_TS_DEWT_062019.nc | 27-Oct-2024 04:15 | 426586 | ||
| 51206_TS_DEWT_062020.nc | 27-Oct-2024 04:15 | 449890 | ||
| 51206_TS_DEWT_062022.nc | 27-Oct-2024 04:15 | 450455 | ||
| 51206_TS_DEWT_072012.nc | 27-Oct-2024 04:15 | 449507 | ||
| 51206_TS_DEWT_072013.nc | 27-Oct-2024 04:15 | 450398 | ||
| 51206_TS_DEWT_072015.nc | 27-Oct-2024 04:15 | 449969 | ||
| 51206_TS_DEWT_072016.nc | 27-Oct-2024 04:15 | 449476 | ||
| 51206_TS_DEWT_072017.nc | 27-Oct-2024 04:15 | 429331 | ||
| 51206_TS_DEWT_072018.nc | 27-Oct-2024 04:15 | 448207 | ||
| 51206_TS_DEWT_072019.nc | 27-Oct-2024 04:15 | 995802 | ||
| 51206_TS_DEWT_072020.nc | 27-Oct-2024 04:15 | 1102942 | ||
| 51206_TS_DEWT_072022.nc | 27-Oct-2024 04:15 | 1115682 | ||
| 51206_TS_DEWT_082012.nc | 27-Oct-2024 04:16 | 1118894 | ||
| 51206_TS_DEWT_082013.nc | 27-Oct-2024 04:16 | 1117770 | ||
| 51206_TS_DEWT_082016.nc | 27-Oct-2024 04:16 | 1116172 | ||
| 51206_TS_DEWT_082017.nc | 27-Oct-2024 04:16 | 1114047 | ||
| 51206_TS_DEWT_082018.nc | 27-Oct-2024 04:16 | 422408 | ||
| 51206_TS_DEWT_082019.nc | 27-Oct-2024 04:16 | 421491 | ||
| 51206_TS_DEWT_082020.nc | 27-Oct-2024 04:16 | 425575 | ||
| 51206_TS_DEWT_082022.nc | 27-Oct-2024 04:16 | 420663 | ||
| 51206_TS_DEWT_092012.nc | 27-Oct-2024 04:16 | 422618 | ||
| 51206_TS_DEWT_092013.nc | 27-Oct-2024 04:16 | 422948 | ||
| 51206_TS_DEWT_092014.nc | 27-Oct-2024 04:16 | 421301 | ||
| 51206_TS_DEWT_092015.nc | 27-Oct-2024 04:16 | 421278 | ||
| 51206_TS_DEWT_092016.nc | 27-Oct-2024 04:16 | 421241 | ||
| 51206_TS_DEWT_092017.nc | 27-Oct-2024 04:16 | 422276 | ||
| 51206_TS_DEWT_092018.nc | 27-Oct-2024 04:16 | 421834 | ||
| 51206_TS_DEWT_092019.nc | 27-Oct-2024 04:16 | 421410 | ||
| 51206_TS_DEWT_092020.nc | 27-Oct-2024 04:16 | 421802 | ||
| 51206_TS_DEWT_092022.nc | 27-Oct-2024 04:17 | 423371 | ||
| 51206_TS_DEWT_092023.nc | 27-Oct-2024 04:17 | 422667 | ||
| 51206_TS_DEWT_102012.nc | 27-Oct-2024 04:17 | 418799 | ||
| 51206_TS_DEWT_102013.nc | 27-Oct-2024 04:17 | 432965 | ||
| 51206_TS_DEWT_102014.nc | 27-Oct-2024 04:17 | 423080 | ||
| 51206_TS_DEWT_102015.nc | 27-Oct-2024 04:17 | 450046 | ||
| 51206_TS_DEWT_102016.nc | 27-Oct-2024 04:17 | 434406 | ||
| 51206_TS_DEWT_102017.nc | 27-Oct-2024 04:17 | 420430 | ||
| 51206_TS_DEWT_102018.nc | 27-Oct-2024 04:17 | 434928 | ||
| 51206_TS_DEWT_102019.nc | 27-Oct-2024 04:17 | 428692 | ||
| 51206_TS_DEWT_102020.nc | 27-Oct-2024 04:17 | 434834 | ||
| 51206_TS_DEWT_102022.nc | 27-Oct-2024 04:17 | 459070 | ||
| 51206_TS_DEWT_102023.nc | 27-Oct-2024 04:17 | 453260 | ||
| 51206_TS_DEWT_112012.nc | 27-Oct-2024 04:17 | 454015 | ||
| 51206_TS_DEWT_112013.nc | 27-Oct-2024 04:18 | 1828741 | ||
| 51206_TS_DEWT_112014.nc | 27-Oct-2024 04:18 | 466169 | ||
| 51206_TS_DEWT_112015.nc | 27-Oct-2024 04:18 | 645836 | ||
| 51206_TS_DEWT_112016.nc | 27-Oct-2024 04:18 | 656926 | ||
| 51206_TS_DEWT_112017.nc | 27-Oct-2024 04:18 | 476562 | ||
| 51206_TS_DEWT_112019.nc | 27-Oct-2024 04:18 | 1257991 | ||
| 51206_TS_DEWT_112020.nc | 27-Oct-2024 04:18 | 1264245 | ||
| 51206_TS_DEWT_112021.nc | 27-Oct-2024 04:18 | 959540 | ||
| 51206_TS_DEWT_112022.nc | 27-Oct-2024 04:18 | 969952 | ||
| 51206_TS_DEWT_112023.nc | 27-Oct-2024 04:18 | 1024184 | ||
| 51206_TS_DEWT_122012.nc | 27-Oct-2024 04:18 | 1110377 | ||
| 51206_TS_DEWT_122013.nc | 27-Oct-2024 04:18 | 1111646 | ||
| 51206_TS_DEWT_122014.nc | 27-Oct-2024 04:18 | 1075471 | ||
| 51206_TS_DEWT_122015.nc | 27-Oct-2024 04:18 | 1266015 | ||
| 51206_TS_DEWT_122016.nc | 27-Oct-2024 04:18 | 466957 | ||
| 51206_TS_DEWT_122017.nc | 27-Oct-2024 04:18 | 1256760 | ||
| 51206_TS_DEWT_122019.nc | 27-Oct-2024 04:19 | 1262600 | ||
| 51206_TS_DEWT_122020.nc | 27-Oct-2024 04:19 | 1266872 | ||
| 51206_TS_DEWT_122021.nc | 27-Oct-2024 04:19 | 1161934 | ||
| 51206_TS_DEWT_122022.nc | 27-Oct-2024 04:19 | 1241514 | ||